Sarnia, Ontario

3:53 PM EDT on April 27, 2017 (GMT -0400)
Sarnia (Hadfield)

Weather History for CYZR - September, 2013

Change the Weather History Date:

Tuesday, September 10, 2013

  Actual Average Record
Temperature  
Mean Temperature 82 °F -  
Max Temperature 95 °F 65 °F 95 °F (1983)
Min Temperature 68 °F 49 °F 40 °F (2014)
Cooling Degree Days 16    
Growing Degree Days 32 (Base 50)    
Moisture  
Dew Point 67 °F    
Average Humidity 66    
Maximum Humidity 94    
Minimum Humidity 34    
Precipitation  
Precipitation 0.00 in 0.11 in - ()
Sea Level Pressure  
Sea Level Pressure 29.92 in    
Wind  
Wind Speed 9 mph ()    
Max Wind Speed 16 mph    
Max Gust Speed 30 mph    
Visibility 8.1 miles    
Events Rain , Thunderstorm    
Averages and records for this station are not official NWS values.
T = Trace of Precipitation, MM = Missing Value Source: Averaged Metar Reports

Daily Weather History Graph

Daily Weather History Graph

Search for Another Location

Airport or City:

Trip Planner

Search our weather history database for the weather conditions in past years. The results will help you decide how hot, cold, wet, or windy it might be!

Date:

Astronomy

Sep. 10, 2013 Rise Set
Actual Time 7:03 AM EDT 7:47 PM EDT
Civil Twilight 6:35 AM EDT 8:16 PM EDT
Nautical Twilight 6:00 AM EDT 8:50 PM EDT
Astronomical Twilight 5:25 AM EDT 9:25 PM EDT
Moon 12:37 PM EDT (9/10) 10:40 PM EDT (9/10)
Length of Visible Light 13h 41m
Length of Day
12h 44m
Waxing Crescent, 28% of the Moon is Illuminated
Sep 10
Waxing Crescent
Sep 12
First Quarter
Sep 19
Full
Sep 26
Last Quarter
Oct 4
New

Hourly Weather History & Observations

Time (EDT) Temp. Heat Index Dew Point Humidity Pressure Visibility Wind Dir Wind Speed Gust Speed Precip Events Conditions
12:00 AM 68.0 °F - 66.2 °F 94% 29.90 in 4.0 mi South 8.1 mph - N/A   Partly Cloudy
1:00 AM 69.8 °F - 68.0 °F 94% 29.88 in 4.0 mi South 8.1 mph - N/A   Clear
2:00 AM 71.6 °F - 68.0 °F 88% 29.87 in 5.0 mi SSW 9.2 mph - N/A   Clear
2:02 AM 71.6 °F - 68.0 °F 88% 29.87 in 6.0 mi SSW 10.4 mph - N/A   Clear
3:00 AM 73.4 °F - 68.0 °F 83% 29.87 in 7.0 mi SSW 9.2 mph - N/A   Partly Cloudy
4:00 AM 75.2 °F - 68.0 °F 78% 29.88 in 9.0 mi SSW 10.4 mph - N/A   Overcast
4:21 AM 75.2 °F - 69.8 °F 83% 29.88 in 9.0 mi SSW 12.7 mph - N/A Thunderstorm Thunderstorm
4:37 AM 75.2 °F - 69.8 °F 83% 29.88 in 9.0 mi SSW 11.5 mph 18.4 mph N/A   Overcast
5:00 AM 75.2 °F - 69.8 °F 83% 29.88 in 9.0 mi SSW 9.2 mph - N/A   Overcast
6:00 AM 75.2 °F - 69.8 °F 83% 29.89 in 8.0 mi SSW 10.4 mph - N/A   Overcast
6:42 AM 75.2 °F - 69.8 °F 83% 29.90 in 8.0 mi SSW 12.7 mph 18.4 mph N/A Rain Light Rain
6:54 AM 75.2 °F - 69.8 °F 83% 29.90 in 8.0 mi SSW 10.4 mph 17.3 mph N/A   Overcast
7:00 AM 73.4 °F - 69.8 °F 88% 29.90 in 8.0 mi SSW 9.2 mph 17.3 mph N/A   Overcast
8:00 AM 75.2 °F - 69.8 °F 83% 29.91 in 7.0 mi SSW 10.4 mph - N/A   Mostly Cloudy
9:00 AM 77.0 °F - 69.8 °F 78% 29.92 in 9.0 mi SW 11.5 mph - N/A   Mostly Cloudy
10:00 AM 82.4 °F 86.3 °F 69.8 °F 66% 29.93 in 9.0 mi SW 10.4 mph 20.7 mph N/A   Mostly Cloudy
11:00 AM 86.0 °F 90.4 °F 69.8 °F 58% 29.94 in 9.0 mi WSW 12.7 mph 19.6 mph N/A   Clear
12:00 PM 89.6 °F 94.7 °F 69.8 °F 52% 29.94 in 9.0 mi WSW 11.5 mph 20.7 mph N/A   Clear
1:00 PM 93.2 °F 98.8 °F 69.8 °F 46% 29.94 in 9.0 mi WSW 13.8 mph 19.6 mph N/A   Clear
2:00 PM 95.0 °F 98.5 °F 66.2 °F 39% 29.93 in 9.0 mi WSW 13.8 mph 19.6 mph N/A   Clear
3:00 PM 95.0 °F 96.0 °F 62.6 °F 34% 29.93 in 9.0 mi WSW 16.1 mph 29.9 mph N/A   Clear
4:00 PM 95.0 °F 96.0 °F 62.6 °F 34% 29.92 in 9.0 mi West 16.1 mph 26.5 mph N/A   Clear
5:00 PM 95.0 °F 96.0 °F 62.6 °F 34% 29.92 in 9.0 mi WSW 13.8 mph 20.7 mph N/A   Clear
6:00 PM 93.2 °F 93.3 °F 60.8 °F 34% 29.93 in 9.0 mi West 15.0 mph 24.2 mph N/A   Clear
7:00 PM 91.4 °F 92.1 °F 62.6 °F 38% 29.94 in 9.0 mi West 10.4 mph 18.4 mph N/A   Clear
8:00 PM 87.8 °F 88.5 °F 62.6 °F 43% 29.96 in 9.0 mi SW 5.8 mph - N/A   Clear
9:00 PM 84.2 °F 85.6 °F 64.4 °F 51% 29.98 in 9.0 mi SW 6.9 mph - N/A   Clear
10:00 PM 82.4 °F 83.9 °F 64.4 °F 54% 29.99 in 9.0 mi SW 6.9 mph - N/A   Clear
11:00 PM 78.8 °F - 66.2 °F 65% 29.99 in 9.0 mi South 8.1 mph - N/A   Clear